Flag for Germany Weather past 2 weeks in Aalen, Baden-Württemberg, Germany

Now
49 °F

Overcast.


Feels Like: 49 °F
Forecast: 36 / 56 °F
Wind: 2 mph from West

Location: Stoetten

Current Time: Oct 25, 2014 at 4:47:00 PM

Latest Report: Oct 25, 2014 at 4:00 PM


Visibility: 16 mi

Pressure: 30.16 "Hg

Humidity: 81%

Dew point: 43 °F

Location of AalenLocation

Historic Weather in Aalen — Graph

°F

Aalen temperature yesterday

Maximum temperature yesterday: 49 °F (at 1:00 PM)
Minimum temperature yesterday: 39 °F (at 9:00 AM)
Average temperature yesterday: 43 °F

Past Weeks' High & Low Weather Summary

 TemperatureHumidityPressure
High69 °F (Oct 19, 2:00 PM)100% (Oct 11, 4:00 AM)30.30 "Hg (Oct 11, 4:00 AM)
Low36 °F (Oct 22, 2:00 PM)57% (Oct 19, 12:00 PM)29.62 "Hg (Oct 21, 8:00 PM)
Average52 °F89%30.00 "Hg
* Reported Oct 10 3:00 PM — Oct 25 3:00 PM, Aalen, Weather by CustomWeather, © 2014

Note: Actual official high and low records may vary slightly from our data, if they occured in-between our weather recording intervals... More about our weather records

Advertising

Aalen weather history for previous 24 hours

 ConditionsComfort  
Time TempWeatherWind HumidityBarometerVisibility
3:00 PM
Oct 25
48 °FOvercast.2 mph79%30.16 "Hg11 mi
2:00 PM47 °FOvercast.2 mph81%30.16 "Hg11 mi
1:00 PM47 °FOvercast.3 mph83%30.16 "Hg9 mi
12:00 PM45 °FOvercast.3 mph84%30.17 "Hg10 mi
11:00 AM46 °FFog.1 mph79%30.16 "Hg2 mi
10:00 AM44 °FFog.1 mph89%30.16 "Hg2 mi
9:00 AM42 °FFog.1 mph95%30.15 "Hg2 mi
8:00 AM40 °FFog.2 mph98%30.16 "Hg2 mi
7:00 AM41 °FOvercast.1 mph97%30.14 "Hg7 mi
6:00 AM42 °FLight rain. Overcast.2 mph90%30.13 "Hg6 mi
5:00 AM39 °FFog.2 mph98%30.16 "Hg1 mi
4:00 AM40 °FFog.3 mph96%30.14 "Hg3 mi
3:00 AM40 °FFog.3 mph97%30.15 "Hg3 mi
2:00 AM40 °FFog.2 mph95%30.16 "Hg3 mi
1:00 AM41 °FFog.5 mph93%30.15 "Hg4 mi
12:00 AM42 °FOvercast.3 mph89%30.16 "Hg6 mi
11:00 PM
Oct 24
42 °FFog.5 mph91%30.17 "Hg4 mi
10:00 PM43 °FPassing clouds.3 mph91%30.17 "Hg6 mi
9:00 PM43 °FClear.3 mph92%30.16 "Hg7 mi
8:00 PM44 °FClear.3 mph90%30.16 "Hg9 mi
7:00 PM44 °FPassing clouds.3 mph87%30.15 "Hg9 mi
6:00 PM46 °FPartly sunny.3 mph78%30.15 "Hg12 mi
5:00 PM47 °FScattered clouds.5 mph72%30.16 "Hg28 mi
4:00 PM49 °FScattered clouds.5 mph65%30.15 "Hg34 mi
Weather by CustomWeather, © 2014

See weather overviewHow to use our weather pages